"Sample Date","Sample Time","Sample Value","Units","Flow Rate","Sample Interval","Number Channels","Micron Size 0","Counts/Channel 0","Micron Size 1","Counts/Channel 1","Micron Size 2","Counts/Channel 2","Micron Size 3","Counts/Channel 3","Micron Size 4","Counts/Channel 4","Micron Size 5","Counts/Channel 5","Micron Size 6","Counts/Channel 6","Micron Size 7","Counts/Channel 7","Micron Size 8","Counts/Channel 8","Micron Size 9","Counts/Channel 9","Micron Size 10","Counts/Channel 10","Micron Size 11","Counts/Channel 11","Micron Size 12","Counts/Channel 12","Micron Size 13","Counts/Channel 13","Micron Size 14","Counts/Channel 14","Micron Size 15","Counts/Channel 15","Micron Size 16","Counts/Channel 16","Micron Size 17","Counts/Channel 17","Micron Size 18","Counts/Channel 18","Micron Size 19","Counts/Channel 19","Micron Size 20","Counts/Channel 20","Micron Size 21","Counts/Channel 21","Micron Size 22","Counts/Channel 22","Micron Size 23","Counts/Channel 23","Micron Size 24","Counts/Channel 24","Micron Size 25","Counts/Channel 25","Micron Size 26","Counts/Channel 26","Micron Size 27","Counts/Channel 27","Micron Size 28","Counts/Channel 28","Micron Size 29","Counts/Channel 29","Micron Size 30","Counts/Channel 30","Micron Size 31","Counts/Channel 31"
"04/04/08","13:00:04",15550.000,"cc",28321.572,6.00,6,0.100,10472.000,0.200,1698.000,0.300,1352.000,0.500,1533.000,1.000,495.000,5.000,0
"04/04/08","13:00:10",15622.000,"cc",28247.797,6.00,6,0.100,10523.000,0.200,1762.000,0.300,1380.000,0.500,1467.000,1.000,490.000,5.000,0
"04/04/08","13:00:16",15518.000,"cc",28325.828,6.00,6,0.100,10543.000,0.200,1776.000,0.300,1304.000,0.500,1424.000,1.000,471.000,5.000,0
"04/04/08","13:00:22",15497.000,"cc",28346.014,6.00,6,0.100,10441.000,0.200,1735.000,0.300,1363.000,0.500,1457.000,1.000,501.000,5.000,0
"04/04/08","13:00:28",15428.000,"cc",28297.022,6.00,6,0.100,10371.000,0.200,1742.000,0.300,1378.000,0.500,1457.000,1.000,480.000,5.000,0
"04/04/08","13:00:34",15464.000,"cc",28345.123,6.00,6,0.100,10526.000,0.200,1729.000,0.300,1283.000,0.500,1442.000,1.000,484.000,5.000,0
"04/04/08","13:00:40",15373.000,"cc",28360.738,6.00,6,0.100,10484.000,0.200,1661.000,0.300,1308.000,0.500,1433.000,1.000,487.000,5.000,0
"04/04/08","13:00:46",15524.000,"cc",28313.455,6.00,6,0.100,10574.000,0.200,1651.000,0.300,1343.000,0.500,1476.000,1.000,480.000,5.000,0
"04/04/08","13:00:52",15608.000,"cc",28205.604,6.00,6,0.100,10551.000,0.200,1731.000,0.300,1323.000,0.500,1481.000,1.000,522.000,5.000,0
"04/04/08","13:00:58",15683.000,"cc",28369.547,6.00,6,0.100,10666.000,0.200,1790.000,0.300,1297.000,0.500,1404.000,1.000,526.000,5.000,0
"04/04/08","13:01:04",15474.000,"cc",28284.066,6.00,6,0.100,10488.000,0.200,1692.000,0.300,1300.000,0.500,1437.000,1.000,557.000,5.000,0
"04/04/08","13:01:10",15465.000,"cc",28360.152,6.00,6,0.100,10586.000,0.200,1698.000,0.300,1263.000,0.500,1430.000,1.000,488.000,5.000,0
"04/04/08","13:01:16",15669.000,"cc",28339.957,6.00,6,0.100,10652.000,0.200,1702.000,0.300,1302.000,0.500,1483.000,1.000,530.000,5.000,0
"04/04/08","13:01:22",15269.000,"cc",28361.264,6.00,6,0.100,10260.000,0.200,1746.000,0.300,1310.000,0.500,1457.000,1.000,496.000,5.000,0
"04/04/08","13:01:28",15512.000,"cc",28278.152,6.00,6,0.100,10562.000,0.200,1684.000,0.300,1352.000,0.500,1395.000,1.000,519.000,5.000,0
"04/04/08","13:01:34",15534.000,"cc",28289.857,6.00,6,0.100,10506.000,0.200,1772.000,0.300,1264.000,0.500,1477.000,1.000,515.000,5.000,0
"04/04/08","13:01:40",15454.000,"cc",28340.928,6.00,6,0.100,10564.000,0.200,1704.000,0.300,1289.000,0.500,1401.000,1.000,496.000,5.000,0
"04/04/08","13:01:46",15705.000,"cc",28334.668,6.00,6,0.100,10743.000,0.200,1666.000,0.300,1269.000,0.500,1494.000,1.000,533.000,5.000,0
"04/04/08","13:01:52",15477.000,"cc",28283.080,6.00,6,0.100,10524.000,0.200,1778.000,0.300,1244.000,0.500,1422.000,1.000,509.000,5.000,0
"04/04/08","13:01:58",15775.000,"cc",28308.734,6.00,6,0.100,10769.000,0.200,1659.000,0.300,1308.000,0.500,1500.000,1.000,539.000,5.000,0
"04/04/08","13:02:04",15590.000,"cc",28306.822,6.00,6,0.100,10520.000,0.200,1753.000,0.300,1330.000,0.500,1474.000,1.000,513.000,5.000,0
"04/04/08","13:02:10",15464.000,"cc",28297.563,6.00,6,0.100,10576.000,0.200,1738.000,0.300,1226.000,0.500,1426.000,1.000,498.000,5.000,0
"04/04/08","13:02:16",15642.000,"cc",28291.422,6.00,6,0.100,10594.000,0.200,1691.000,0.300,1358.000,0.500,1462.000,1.000,537.000,5.000,0
"04/04/08","13:02:22",15544.000,"cc",28324.918,6.00,6,0.100,10570.000,0.200,1707.000,0.300,1325.000,0.500,1473.000,1.000,469.000,5.000,0
"04/04/08","13:02:28",15891.000,"cc",28260.932,6.00,6,0.100,10777.000,0.200,1714.000,0.300,1432.000,0.500,1528.000,1.000,440.000,5.000,0
"04/04/08","13:02:34",15911.000,"cc",28378.045,6.00,6,0.100,10585.000,0.200,1804.000,0.300,1421.000,0.500,1597.000,1.000,504.000,5.000,0
"04/04/08","13:02:40",15621.000,"cc",28319.414,6.00,6,0.100,10483.000,0.200,1776.000,0.300,1305.000,0.500,1542.000,1.000,515.000,5.000,0
"04/04/08","13:02:46",15500.000,"cc",28373.863,6.00,6,0.100,10411.000,0.200,1777.000,0.300,1388.000,0.500,1437.000,1.000,487.000,5.000,0
"04/04/08","13:02:52",15417.000,"cc",28339.164,6.00,6,0.100,10388.000,0.200,1741.000,0.300,1331.000,0.500,1487.000,1.000,470.000,5.000,0
"04/04/08","13:02:58",15702.000,"cc",28272.285,6.00,6,0.100,10693.000,0.200,1749.000,0.300,1326.000,0.500,1446.000,1.000,488.000,5.000,0
"04/04/08","13:03:04",15699.000,"cc",28292.865,6.00,6,0.100,10569.000,0.200,1817.000,0.300,1366.000,0.500,1457.000,1.000,490.000,5.000,0
"04/04/08","13:03:10",15677.000,"cc",28257.469,6.00,6,0.100,10598.000,0.200,1759.000,0.300,1390.000,0.500,1426.000,1.000,504.000,5.000,0
"04/04/08","13:03:16",15423.000,"cc",28332.607,6.00,6,0.100,10387.000,0.200,1657.000,0.300,1331.000,0.500,1564.000,1.000,484.000,5.000,0
"04/04/08","13:03:22",15477.000,"cc",28316.785,6.00,6,0.100,10387.000,0.200,1720.000,0.300,1384.000,0.500,1485.000,1.000,501.000,5.000,0
"04/04/08","13:03:28",15273.000,"cc",28347.242,6.00,6,0.100,10366.000,0.200,1710.000,0.300,1279.000,0.500,1417.000,1.000,501.000,5.000,0
"04/04/08","13:03:34",15541.000,"cc",28314.293,6.00,6,0.100,10507.000,0.200,1705.000,0.300,1349.000,0.500,1492.000,1.000,488.000,5.000,0
"04/04/08","13:03:40",15933.000,"cc",28313.482,6.00,6,0.100,10803.000,0.200,1700.000,0.300,1369.000,0.500,1505.000,1.000,556.000,5.000,0
"04/04/08","13:03:46",15214.000,"cc",28292.074,6.00,6,0.100,10276.000,0.200,1692.000,0.300,1277.000,0.500,1446.000,1.000,523.000,5.000,0
"04/04/08","13:03:52",15534.000,"cc",28280.320,6.00,6,0.100,10512.000,0.200,1705.000,0.300,1371.000,0.500,1426.000,1.000,520.000,5.000,0
"04/04/08","13:03:58",15648.000,"cc",28349.566,6.00,6,0.100,10655.000,0.200,1695.000,0.300,1288.000,0.500,1484.000,1.000,526.000,5.000,0
"04/04/08","13:04:04",15445.000,"cc",28311.606,6.00,6,0.100,10480.000,0.200,1690.000,0.300,1350.000,0.500,1445.000,1.000,480.000,5.000,0
"04/04/08","13:04:10",15614.000,"cc",28360.244,6.00,6,0.100,10561.000,0.200,1711.000,0.300,1295.000,0.500,1526.000,1.000,521.000,5.000,0
"04/04/08","13:04:16",15718.000,"cc",28279.068,6.00,6,0.100,10612.000,0.200,1799.000,0.300,1306.000,0.500,1468.000,1.000,533.000,5.000,0
"04/04/08","13:04:22",15473.000,"cc",28323.408,6.00,6,0.100,10529.000,0.200,1698.000,0.300,1282.000,0.500,1473.000,1.000,491.000,5.000,0
"04/04/08","13:04:28",15690.000,"cc",28306.826,6.00,6,0.100,10676.000,0.200,1739.000,0.300,1328.000,0.500,1466.000,1.000,481.000,5.000,0
"04/04/08","13:04:34",15748.000,"cc",28281.227,6.00,6,0.100,10584.000,0.200,1713.000,0.300,1338.000,0.500,1571.000,1.000,542.000,5.000,0
"04/04/08","13:04:40",15506.000,"cc",28364.061,6.00,6,0.100,10559.000,0.200,1707.000,0.300,1291.000,0.500,1437.000,1.000,512.000,5.000,0
"04/04/08","13:04:46",15609.000,"cc",28349.049,6.00,6,0.100,10633.000,0.200,1684.000,0.300,1286.000,0.500,1482.000,1.000,524.000,5.000,0
"04/04/08","13:04:52",15835.000,"cc",28287.029,6.00,6,0.100,10720.000,0.200,1727.000,0.300,1352.000,0.500,1533.000,1.000,503.000,5.000,0
"04/04/08","13:04:58",15400.000,"cc",28308.672,6.00,6,0.100,10466.000,0.200,1697.000,0.300,1295.000,0.500,1437.000,1.000,505.000,5.000,0
"04/04/08","13:05:04",15491.000,"cc",28319.688,6.00,6,0.100,10354.000,0.200,1772.000,0.300,1357.000,0.500,1517.000,1.000,491.000,5.000,0
"04/04/08","13:05:10",15596.000,"cc",28310.836,6.00,6,0.100,10695.000,0.200,1702.000,0.300,1277.000,0.500,1473.000,1.000,449.000,5.000,0
"04/04/08","13:05:16",15474.000,"cc",28355.258,6.00,6,0.100,10541.000,0.200,1728.000,0.300,1250.000,0.500,1465.000,1.000,490.000,5.000,0
"04/04/08","13:05:22",15364.000,"cc",28292.330,6.00,6,0.100,10482.000,0.200,1701.000,0.300,1223.000,0.500,1459.000,1.000,499.000,5.000,0
"04/04/08","13:05:28",15423.000,"cc",28351.541,6.00,6,0.100,10467.000,0.200,1707.000,0.300,1310.000,0.500,1434.000,1.000,505.000,5.000,0
"04/04/08","13:05:34",15347.000,"cc",28289.938,6.00,6,0.100,10339.000,0.200,1692.000,0.300,1337.000,0.500,1497.000,1.000,482.000,5.000,0
"04/04/08","13:05:40",15410.000,"cc",28324.688,6.00,6,0.100,10344.000,0.200,1791.000,0.300,1312.000,0.500,1459.000,1.000,504.000,5.000,0
"04/04/08","13:05:46",15447.000,"cc",28270.391,6.00,6,0.100,10487.000,0.200,1699.000,0.300,1316.000,0.500,1477.000,1.000,468.000,5.000,0
"04/04/08","13:05:52",15586.000,"cc",28296.397,6.00,6,0.100,10543.000,0.200,1734.000,0.300,1341.000,0.500,1447.000,1.000,521.000,5.000,0
"04/04/08","13:05:58",15457.000,"cc",28322.957,6.00,6,0.100,10541.000,0.200,1688.000,0.300,1282.000,0.500,1472.000,1.000,474.000,5.000,0
"04/04/08","13:06:04",15612.000,"cc",28298.065,6.00,6,0.100,10463.000,0.200,1747.000,0.300,1348.000,0.500,1494.000,1.000,560.000,5.000,0
"04/04/08","13:06:10",15920.000,"cc",28306.893,6.00,6,0.100,10782.000,0.200,1753.000,0.300,1353.000,0.500,1492.000,1.000,540.000,5.000,0
"04/04/08","13:06:16",15748.000,"cc",28356.787,6.00,6,0.100,10532.000,0.200,1791.000,0.300,1359.000,0.500,1506.000,1.000,560.000,5.000,0
"04/04/08","13:06:22",15612.000,"cc",28351.940,6.00,6,0.100,10416.000,0.200,1776.000,0.300,1312.000,0.500,1601.000,1.000,507.000,5.000,0
"04/04/08","13:06:28",15570.000,"cc",28272.070,6.00,6,0.100,10569.000,0.200,1776.000,0.300,1269.000,0.500,1488.000,1.000,468.000,5.000,0
"04/04/08","13:06:34",15566.000,"cc",28323.809,6.00,6,0.100,10594.000,0.200,1674.000,0.300,1326.000,0.500,1480.000,1.000,492.000,5.000,0
"04/04/08","13:06:40",15237.000,"cc",28333.434,6.00,6,0.100,10443.000,0.200,1708.000,0.300,1230.000,0.500,1400.000,1.000,456.000,5.000,0
"04/04/08","13:06:46",15188.000,"cc",28268.656,6.00,6,0.100,10305.000,0.200,1687.000,0.300,1268.000,0.500,1386.000,1.000,542.000,5.000,0
"04/04/08","13:06:52",15396.000,"cc",28323.785,6.00,6,0.100,10431.000,0.200,1703.000,0.300,1295.000,0.500,1475.000,1.000,492.000,5.000,0
"04/04/08","13:06:58",15110.000,"cc",28341.045,6.00,6,0.100,10322.000,0.200,1642.000,0.300,1243.000,0.500,1400.000,1.000,503.000,5.000,0
"04/04/08","13:07:04",15305.000,"cc",28248.785,6.00,6,0.100,10260.000,0.200,1818.000,0.300,1285.000,0.500,1460.000,1.000,482.000,5.000,0
"04/04/08","13:07:10",15542.000,"cc",28346.865,6.00,6,0.100,10553.000,0.200,1719.000,0.300,1277.000,0.500,1476.000,1.000,517.000,5.000,0
"04/04/08","13:07:16",15369.000,"cc",28369.893,6.00,6,0.100,10463.000,0.200,1634.000,0.300,1315.000,0.500,1422.000,1.000,535.000,5.000,0
"04/04/08","13:07:22",15436.000,"cc",28321.432,6.00,6,0.100,10577.000,0.200,1678.000,0.300,1306.000,0.500,1387.000,1.000,488.000,5.000,0
"04/04/08","13:07:28",15370.000,"cc",28290.371,6.00,6,0.100,10420.000,0.200,1780.000,0.300,1258.000,0.500,1419.000,1.000,493.000,5.000,0
"04/04/08","13:07:34",15339.000,"cc",28321.238,6.00,6,0.100,10393.000,0.200,1751.000,0.300,1304.000,0.500,1399.000,1.000,492.000,5.000,0
"04/04/08","13:07:40",15466.000,"cc",28337.809,6.00,6,0.100,10532.000,0.200,1735.000,0.300,1203.000,0.500,1483.000,1.000,513.000,5.000,0
"04/04/08","13:07:46",15536.000,"cc",28278.178,6.00,6,0.100,10487.000,0.200,1714.000,0.300,1373.000,0.500,1457.000,1.000,505.000,5.000,0
"04/04/08","13:07:52",15251.000,"cc",28362.594,6.00,6,0.100,10373.000,0.200,1697.000,0.300,1258.000,0.500,1459.000,1.000,464.000,5.000,0
"04/04/08","13:07:58",15419.000,"cc",28316.850,6.00,6,0.100,10391.000,0.200,1737.000,0.300,1314.000,0.500,1500.000,1.000,477.000,5.000,0
"04/04/08","13:08:04",15363.000,"cc",28339.227,6.00,6,0.100,10423.000,0.200,1724.000,0.300,1291.000,0.500,1402.000,1.000,523.000,5.000,0
"04/04/08","13:08:10",15389.000,"cc",28291.619,6.00,6,0.100,10497.000,0.200,1671.000,0.300,1285.000,0.500,1412.000,1.000,524.000,5.000,0
"04/04/08","13:08:16",15585.000,"cc",28338.424,6.00,6,0.100,10567.000,0.200,1740.000,0.300,1333.000,0.500,1466.000,1.000,479.000,5.000,0
"04/04/08","13:08:22",15605.000,"cc",28369.447,6.00,6,0.100,10466.000,0.200,1789.000,0.300,1300.000,0.500,1510.000,1.000,540.000,5.000,0
"04/04/08","13:08:28",15270.000,"cc",28297.514,6.00,6,0.100,10402.000,0.200,1704.000,0.300,1219.000,0.500,1433.000,1.000,512.000,5.000,0
"04/04/08","13:08:34",15314.000,"cc",28324.481,6.00,6,0.100,10478.000,0.200,1694.000,0.300,1293.000,0.500,1390.000,1.000,459.000,5.000,0
"04/04/08","13:08:40",15424.000,"cc",28285.449,6.00,6,0.100,10462.000,0.200,1796.000,0.300,1251.000,0.500,1414.000,1.000,501.000,5.000,0
"04/04/08","13:08:46",15542.000,"cc",28291.147,6.00,6,0.100,10604.000,0.200,1643.000,0.300,1334.000,0.500,1468.000,1.000,493.000,5.000,0
"04/04/08","13:08:52",15749.000,"cc",28287.035,6.00,6,0.100,10616.000,0.200,1689.000,0.300,1430.000,0.500,1482.000,1.000,532.000,5.000,0
"04/04/08","13:08:58",15526.000,"cc",28312.391,6.00,6,0.100,10436.000,0.200,1714.000,0.300,1413.000,0.500,1449.000,1.000,514.000,5.000,0
"04/04/08","13:09:04",15581.000,"cc",28332.760,6.00,6,0.100,10647.000,0.200,1697.000,0.300,1276.000,0.500,1454.000,1.000,507.000,5.000,0
"04/04/08","13:09:10",15604.000,"cc",28324.227,6.00,6,0.100,10586.000,0.200,1728.000,0.300,1313.000,0.500,1444.000,1.000,533.000,5.000,0
"04/04/08","13:09:16",15698.000,"cc",28255.494,6.00,6,0.100,10562.000,0.200,1705.000,0.300,1317.000,0.500,1559.000,1.000,555.000,5.000,0
"04/04/08","13:09:22",15405.000,"cc",28339.801,6.00,6,0.100,10319.000,0.200,1776.000,0.300,1331.000,0.500,1485.000,1.000,494.000,5.000,0
"04/04/08","13:09:28",15151.000,"cc",28333.887,6.00,6,0.100,10222.000,0.200,1695.000,0.300,1284.000,0.500,1448.000,1.000,502.000,5.000,0
"04/04/08","13:09:34",15591.000,"cc",28295.850,6.00,6,0.100,10523.000,0.200,1773.000,0.300,1347.000,0.500,1449.000,1.000,499.000,5.000,0
"04/04/08","13:09:40",15387.000,"cc",28338.135,6.00,6,0.100,10356.000,0.200,1767.000,0.300,1297.000,0.500,1478.000,1.000,489.000,5.000,0
"04/04/08","13:09:46",15321.000,"cc",28323.584,6.00,6,0.100,10317.000,0.200,1758.000,0.300,1307.000,0.500,1442.000,1.000,497.000,5.000,0
"04/04/08","13:09:52",15441.000,"cc",28368.082,6.00,6,0.100,10435.000,0.200,1693.000,0.300,1301.000,0.500,1496.000,1.000,516.000,5.000,0
"04/04/08","13:09:58",15373.000,"cc",28323.357,6.00,6,0.100,10326.000,0.200,1770.000,0.300,1291.000,0.500,1465.000,1.000,521.000,5.000,0
"04/04/08","13:10:04",15727.000,"cc",28282.565,6.00,6,0.100,10515.000,0.200,1807.000,0.300,1381.000,0.500,1479.000,1.000,545.000,5.000,0
"04/04/08","13:10:10",15665.000,"cc",28300.662,6.00,6,0.100,10641.000,0.200,1719.000,0.300,1290.000,0.500,1511.000,1.000,504.000,5.000,0
"04/04/08","13:10:16",15415.000,"cc",28360.516,6.00,6,0.100,10487.000,0.200,1768.000,0.300,1236.000,0.500,1429.000,1.000,495.000,5.000,0
"04/04/08","13:10:22",15442.000,"cc",28288.279,6.00,6,0.100,10484.000,0.200,1722.000,0.300,1330.000,0.500,1434.000,1.000,472.000,5.000,0
"04/04/08","13:10:28",15317.000,"cc",28321.072,6.00,6,0.100,10429.000,0.200,1700.000,0.300,1284.000,0.500,1435.000,1.000,469.000,5.000,0
"04/04/08","13:10:34",15481.000,"cc",28332.123,6.00,6,0.100,10479.000,0.200,1738.000,0.300,1379.000,0.500,1395.000,1.000,490.000,5.000,0
"04/04/08","13:10:40",15318.000,"cc",28346.217,6.00,6,0.100,10304.000,0.200,1748.000,0.300,1349.000,0.500,1429.000,1.000,488.000,5.000,0
"04/04/08","13:10:46",15404.000,"cc",28257.738,6.00,6,0.100,10458.000,0.200,1763.000,0.300,1285.000,0.500,1417.000,1.000,481.000,5.000,0
"04/04/08","13:10:52",15324.000,"cc",28328.766,6.00,6,0.100,10463.000,0.200,1695.000,0.300,1257.000,0.500,1391.000,1.000,518.000,5.000,0
"04/04/08","13:10:58",15552.000,"cc",28310.914,6.00,6,0.100,10510.000,0.200,1762.000,0.300,1279.000,0.500,1482.000,1.000,519.000,5.000,0
"04/04/08","13:11:04",15311.000,"cc",28324.492,6.00,6,0.100,10422.000,0.200,1750.000,0.300,1265.000,0.500,1395.000,1.000,479.000,5.000,0
"04/04/08","13:11:10",15272.000,"cc",28309.346,6.00,6,0.100,10371.000,0.200,1657.000,0.300,1303.000,0.500,1442.000,1.000,499.000,5.000,0
"04/04/08","13:11:16",15380.000,"cc",28348.211,6.00,6,0.100,10403.000,0.200,1697.000,0.300,1319.000,0.500,1500.000,1.000,461.000,5.000,0
"04/04/08","13:11:22",15498.000,"cc",28321.875,6.00,6,0.100,10548.000,0.200,1737.000,0.300,1248.000,0.500,1465.000,1.000,500.000,5.000,0
"04/04/08","13:11:28",15734.000,"cc",28297.074,6.00,6,0.100,10594.000,0.200,1795.000,0.300,1345.000,0.500,1489.000,1.000,511.000,5.000,0
"04/04/08","13:11:34",15539.000,"cc",28297.740,6.00,6,0.100,10546.000,0.200,1756.000,0.300,1323.000,0.500,1412.000,1.000,502.000,5.000,0
"04/04/08","13:11:40",15488.000,"cc",28383.242,6.00,6,0.100,10504.000,0.200,1668.000,0.300,1319.000,0.500,1494.000,1.000,503.000,5.000,0
"04/04/08","13:11:46",15371.000,"cc",28305.316,6.00,6,0.100,10378.000,0.200,1766.000,0.300,1359.000,0.500,1409.000,1.000,459.000,5.000,0
"04/04/08","13:11:52",15335.000,"cc",28364.326,6.00,6,0.100,10478.000,0.200,1671.000,0.300,1326.000,0.500,1382.000,1.000,478.000,5.000,0
"04/04/08","13:11:58",14994.000,"cc",28308.746,6.00,6,0.100,10115.000,0.200,1691.000,0.300,1348.000,0.500,1349.000,1.000,491.000,5.000,0
"04/04/08","13:12:04",15478.000,"cc",28269.840,6.00,6,0.100,10542.000,0.200,1744.000,0.300,1258.000,0.500,1431.000,1.000,503.000,5.000,0
"04/04/08","13:12:10",15250.000,"cc",28349.449,6.00,6,0.100,10356.000,0.200,1626.000,0.300,1301.000,0.500,1436.000,1.000,531.000,5.000,0
"04/04/08","13:12:16",15466.000,"cc",28280.018,6.00,6,0.100,10449.000,0.200,1691.000,0.300,1376.000,0.500,1465.000,1.000,485.000,5.000,0
"04/04/08","13:12:22",15173.000,"cc",28314.234,6.00,6,0.100,10168.000,0.200,1726.000,0.300,1340.000,0.500,1420.000,1.000,519.000,5.000,0
"04/04/08","13:12:28",15323.000,"cc",28370.535,6.00,6,0.100,10483.000,0.200,1642.000,0.300,1350.000,0.500,1386.000,1.000,462.000,5.000,0
"04/04/08","13:12:34",15257.000,"cc",28334.615,6.00,6,0.100,10360.000,0.200,1707.000,0.300,1258.000,0.500,1429.000,1.000,503.000,5.000,0
"04/04/08","13:12:40",15247.000,"cc",28254.887,6.00,6,0.100,10390.000,0.200,1651.000,0.300,1287.000,0.500,1422.000,1.000,497.000,5.000,0
"04/04/08","13:12:46",15392.000,"cc",28269.469,6.00,6,0.100,10451.000,0.200,1645.000,0.300,1341.000,0.500,1465.000,1.000,490.000,5.000,0
"04/04/08","13:12:52",15710.000,"cc",28257.900,6.00,6,0.100,10468.000,0.200,1774.000,0.300,1390.000,0.500,1538.000,1.000,540.000,5.000,0
"04/04/08","13:12:58",15512.000,"cc",28316.795,6.00,6,0.100,10476.000,0.200,1734.000,0.300,1328.000,0.500,1500.000,1.000,474.000,5.000,0
"04/04/08","13:13:04",15233.000,"cc",28345.762,6.00,6,0.100,10320.000,0.200,1666.000,0.300,1298.000,0.500,1442.000,1.000,507.000,5.000,0
"04/04/08","13:13:10",15146.000,"cc",28330.645,6.00,6,0.100,10206.000,0.200,1734.000,0.300,1324.000,0.500,1395.000,1.000,487.000,5.000,0
"04/04/08","13:13:16",15294.000,"cc",28308.334,6.00,6,0.100,10250.000,0.200,1800.000,0.300,1271.000,0.500,1465.000,1.000,508.000,5.000,0
"04/04/08","13:13:22",15490.000,"cc",28324.066,6.00,6,0.100,10417.000,0.200,1770.000,0.300,1324.000,0.500,1460.000,1.000,519.000,5.000,0
"04/04/08","13:13:28",15566.000,"cc",28287.588,6.00,6,0.100,10371.000,0.200,1770.000,0.300,1364.000,0.500,1523.000,1.000,538.000,5.000,0
"04/04/08","13:13:34",15407.000,"cc",28316.982,6.00,6,0.100,10426.000,0.200,1710.000,0.300,1276.000,0.500,1484.000,1.000,511.000,5.000,0
"04/04/08","13:13:40",15463.000,"cc",28310.193,6.00,6,0.100,10363.000,0.200,1696.000,0.300,1329.000,0.500,1559.000,1.000,516.000,5.000,0
"04/04/08","13:13:46",15295.000,"cc",28384.160,6.00,6,0.100,10310.000,0.200,1683.000,0.300,1333.000,0.500,1461.000,1.000,508.000,5.000,0
"04/04/08","13:13:52",15375.000,"cc",28341.973,6.00,6,0.100,10359.000,0.200,1702.000,0.300,1318.000,0.500,1501.000,1.000,495.000,5.000,0
"04/04/08","13:13:58",15330.000,"cc",28259.027,6.00,6,0.100,10443.000,0.200,1626.000,0.300,1320.000,0.500,1425.000,1.000,516.000,5.000,0
"04/04/08","13:14:04",15245.000,"cc",28230.576,6.00,6,0.100,10281.000,0.200,1688.000,0.300,1301.000,0.500,1482.000,1.000,493.000,5.000,0
"04/04/08","13:14:10",15225.000,"cc",28355.563,6.00,6,0.100,10436.000,0.200,1667.000,0.300,1298.000,0.500,1362.000,1.000,462.000,5.000,0
"04/04/08","13:14:16",15281.000,"cc",28364.848,6.00,6,0.100,10298.000,0.200,1750.000,0.300,1329.000,0.500,1418.000,1.000,486.000,5.000,0
"04/04/08","13:14:22",15287.000,"cc",28302.027,6.00,6,0.100,10450.000,0.200,1696.000,0.300,1278.000,0.500,1364.000,1.000,499.000,5.000,0
"04/04/08","13:14:28",15185.000,"cc",28337.211,6.00,6,0.100,10249.000,0.200,1685.000,0.300,1368.000,0.500,1374.000,1.000,509.000,5.000,0
"04/04/08","13:14:34",15404.000,"cc",28319.008,6.00,6,0.100,10394.000,0.200,1751.000,0.300,1342.000,0.500,1427.000,1.000,490.000,5.000,0
"04/04/08","13:14:40",15681.000,"cc",28330.602,6.00,6,0.100,10527.000,0.200,1762.000,0.300,1392.000,0.500,1495.000,1.000,505.000,5.000,0
"04/04/08","13:14:46",15531.000,"cc",28349.672,6.00,6,0.100,10458.000,0.200,1738.000,0.300,1350.000,0.500,1453.000,1.000,532.000,5.000,0
"04/04/08","13:14:52",15477.000,"cc",28259.566,6.00,6,0.100,10550.000,0.200,1668.000,0.300,1381.000,0.500,1394.000,1.000,484.000,5.000,0
"04/04/08","13:14:58",15758.000,"cc",28288.209,6.00,6,0.100,11086.000,0.200,1638.000,0.300,1238.000,0.500,1286.000,1.000,510.000,5.000,0
"04/04/08","13:15:04",15912.000,"cc",28359.496,6.00,6,0.100,11133.000,0.200,1665.000,0.300,1254.000,0.500,1401.000,1.000,459.000,5.000,0
"04/04/08","13:15:10",15707.000,"cc",28350.856,6.00,6,0.100,10906.000,0.200,1628.000,0.300,1264.000,0.500,1398.000,1.000,511.000,5.000,0
"04/04/08","13:15:16",16020.000,"cc",28317.949,6.00,6,0.100,11520.000,0.200,1584.000,0.300,1200.000,0.500,1279.000,1.000,437.000,5.000,0
"04/04/08","13:15:22",15513.000,"cc",28299.832,6.00,6,0.100,10962.000,0.200,1604.000,0.300,1171.000,0.500,1298.000,1.000,478.000,5.000,0
"04/04/08","13:15:28",15817.000,"cc",28349.969,6.00,6,0.100,11146.000,0.200,1704.000,0.300,1215.000,0.500,1294.000,1.000,458.000,5.000,0
"04/04/08","13:15:34",15916.000,"cc",28325.629,6.00,6,0.100,11190.000,0.200,1572.000,0.300,1248.000,0.500,1390.000,1.000,516.000,5.000,0
"04/04/08","13:15:40",15974.000,"cc",28263.402,6.00,6,0.100,11588.000,0.200,1608.000,0.300,1135.000,0.500,1225.000,1.000,418.000,5.000,0
"04/04/08","13:15:46",15739.000,"cc",28326.979,6.00,6,0.100,11178.000,0.200,1543.000,0.300,1242.000,0.500,1334.000,1.000,442.000,5.000,0
"04/04/08","13:15:52",15299.000,"cc",28269.930,6.00,6,0.100,10609.000,0.200,1671.000,0.300,1162.000,0.500,1377.000,1.000,480.000,5.000,0
"04/04/08","13:15:58",15489.000,"cc",28358.805,6.00,6,0.100,10596.000,0.200,1715.000,0.300,1227.000,0.500,1490.000,1.000,461.000,5.000,0
"04/04/08","13:16:04",15282.000,"cc",28299.803,6.00,6,0.100,10613.000,0.200,1595.000,0.300,1276.000,0.500,1325.000,1.000,473.000,5.000,0
"04/04/08","13:16:10",15560.000,"cc",28338.770,6.00,6,0.100,10673.000,0.200,1716.000,0.300,1214.000,0.500,1450.000,1.000,507.000,5.000,0
"04/04/08","13:16:16",15517.000,"cc",28248.309,6.00,6,0.100,10515.000,0.200,1679.000,0.300,1326.000,0.500,1489.000,1.000,508.000,5.000,0
"04/04/08","13:16:22",15354.000,"cc",28268.336,6.00,6,0.100,10319.000,0.200,1725.000,0.300,1325.000,0.500,1453.000,1.000,532.000,5.000,0